Location: Cuzcurrita-R�o Tir�n
(42.5415°N, 2.9642°W)
Time: 21:43:42
(UTC+00:00)

ARGOS - Pass Details

Date: 17 January 2021
Orbit: 821 x 834 km, 98.4° (Epoch: 03 March)

Event Time Altitude Azimuth Distance (km) Brightness Sun altitude
Rises 18:25:32 0° 139° (SE) 3,341 6.1 -14.4°
Reaches altitude 10° 18:28:03 10° 130° (SE) 2,413 5.2 -14.8°
Maximum altitude 18:32:48 34° 67° (ENE) 1,327 3.7 -15.7°
Drops below altitude 10° 18:37:36 10° 4° (N) 2,431 5.4 -16.5°
Sets 18:40:08 0° 356° (N) 3,370 6.2 -17.0°
